Starlink 11374

operational
NORAD ID: 61581 Int'l Des: 2024-187 Owner: SPXS Country: US Constellation: starlink
LEOCIRCULAR

Starlink 11374について

説明を読み込み中...

リアルタイム位置

3D地球を読み込み中...

次回通過

高度履歴

Altitude vs Time

uPlot chart will show altitude changes over time

軌道要素

1 61581U 24187H 25307.67705549 -.00001942 00000-0 -11174-4 0 9999
2 61581 53.1585 197.8113 0000839 127.6773 232.4321 15.69711471 61009
Epoch: Nov 3, 2025 • Age: 32 hours

現在のステータス

高度 378.7 km
速度 7.68 km/s
衛星直下点 -53.31°S, 56.28°E
打ち上げ日 Oct 18, 2024
運用期間 1 years
タイプ internet

技術仕様

分類 Payload
質量 960.00 kg
乾燥質量 910.00 kg
総質量 960.00 kg
長さ 0.30 m
直径 4.10 m
スパン 29.00 m
形状 Box + pan
製造者 SPXS
バスタイプ Starlink V2MD
フェーズステータス In Orbit
所有者/国 SPXS/US

大規模コンステレーション

Loading constellations...